contact:dominique.lefevre@mio.osupytheas.fr, maurice.libes@osupytheas.fr, didier.mallarino@osupytheas.fr
Project:EMSO http://www.emso-fr.org/EMSO-France
Depth: 2436.0 m
Title:EMSO Ligure Ouest : Data MII capteur AQUADOPP
Date,Latitude,Longitude,X_East,Y_North,Z_Up,Amplitude_X,Amplitude_Y,Amplitude_Z,Batterie,SoundSpeed,Heading,Pitch,Roll,Pressure,TIS,Speed,Direction
, degrees North, degrees East, m.s-1, m.s-1,m.s-1, 1, 1, 1, Volt, m.s-1, degree, degree, degree, dbar, degree_C, m.s-1, degree
2020-06-05T00:04:02,42.805,6.029,0.045,-0.017,-0.031,103.0,105.0,101.0,13.3,1505.2,326.5,-0.7,1.8,2470.334,13.3,0.048,110.7
2020-06-05T00:07:03,42.805,6.029,0.056,-0.018,0.006,103.0,106.0,100.0,13.3,1505.3,325.9,-0.7,1.8,2470.351,13.31,0.058,107.8
2020-06-05T00:10:03,42.805,6.029,0.041,-0.021,-0.023,102.0,104.0,100.0,13.4,1505.3,323.1,-0.7,1.8,2470.331,13.31,0.046,117.1
2020-06-05T00:13:03,42.805,6.029,0.068,-0.005,0.033,102.0,105.0,100.0,13.4,1505.3,325.4,-0.7,1.8,2470.323,13.32,0.068,94.2
2020-06-05T00:16:03,42.805,6.029,0.041,0.0,-0.017,102.0,105.0,101.0,13.3,1505.3,327.8,-0.7,1.8,2470.317,13.32,0.041,90.0
2020-06-05T00:19:03,42.805,6.029,0.059,0.0,-0.015,102.0,105.0,101.0,13.3,1505.3,324.1,-0.7,1.8,2470.317,13.32,0.058,90.0
2020-06-05T00:22:03,42.805,6.029,0.018,-0.017,-0.057,103.0,105.0,102.0,13.4,1505.3,323.5,-0.7,1.8,2470.32,13.32,0.024,133.4
2020-06-05T00:25:03,42.805,6.029,0.054,-0.016,-0.004,102.0,106.0,101.0,13.4,1505.3,325.7,-0.7,1.8,2470.331,13.32,0.056,106.5
2020-06-05T00:28:03,42.805,6.029,0.055,-0.016,-0.008,103.0,105.0,101.0,13.4,1505.3,322.8,-0.7,1.8,2470.315,13.32,0.057,106.2
2020-06-05T00:31:03,42.805,6.029,0.045,-0.004,0.028,104.0,103.0,101.0,13.4,1505.3,328.5,-0.7,1.8,2470.296,13.32,0.045,95.1
2020-06-05T00:34:03,42.805,6.029,0.021,-0.013,-0.016,102.0,105.0,101.0,13.4,1505.3,325.6,-0.7,1.9,2470.31,13.32,0.024,121.8
2020-06-05T00:37:03,42.805,6.029,0.049,-0.018,-0.032,102.0,105.0,101.0,13.4,1505.3,323.3,-0.7,1.9,2470.311,13.32,0.052,110.2
2020-06-05T00:40:03,42.805,6.029,0.041,-0.018,0.005,104.0,106.0,101.0,13.3,1505.3,328.7,-0.7,1.8,2470.261,13.32,0.044,113.7
2020-06-05T00:43:03,42.805,6.029,0.049,-0.014,0.005,103.0,105.0,101.0,13.4,1505.3,325.6,-0.7,1.8,2470.328,13.32,0.05,105.9
2020-06-05T00:46:03,42.805,6.029,0.058,-0.008,-0.01,102.0,106.0,101.0,13.3,1505.3,322.9,-0.7,1.8,2470.304,13.32,0.058,97.8
2020-06-05T00:49:03,42.805,6.029,0.042,-0.017,-0.022,104.0,104.0,101.0,13.4,1505.3,326.9,-0.7,1.8,2470.308,13.32,0.045,112.0
2020-06-05T00:52:03,42.805,6.029,0.053,-0.017,-0.007,103.0,104.0,101.0,13.4,1505.3,326.4,-0.7,1.9,2470.303,13.32,0.055,107.8
2020-06-05T00:55:03,42.805,6.029,0.051,-0.018,-0.021,104.0,103.0,100.0,13.4,1505.3,325.9,-0.7,1.8,2470.236,13.32,0.054,109.4
2020-06-05T00:58:03,42.805,6.029,0.059,-0.008,-0.021,103.0,104.0,101.0,13.4,1505.3,326.0,-0.7,1.8,2470.301,13.32,0.059,97.7
2020-06-05T01:04:03,42.805,6.029,0.067,-0.021,0.006,104.0,108.0,103.0,13.4,1505.2,326.5,-0.8,1.8,2470.334,13.3,0.07,107.4
2020-06-05T01:07:03,42.805,6.029,0.071,-0.018,-0.011,103.0,104.0,101.0,13.4,1505.3,325.7,-0.7,1.8,2470.348,13.31,0.073,104.2
2020-06-05T01:10:03,42.805,6.029,0.041,-0.002,-0.034,103.0,105.0,100.0,13.4,1505.3,324.6,-0.7,1.8,2470.331,13.31,0.041,92.8
2020-06-05T01:13:03,42.805,6.029,0.046,-0.005,-0.011,103.0,106.0,101.0,13.4,1505.3,323.7,-0.7,1.8,2470.322,13.32,0.046,96.2
2020-06-05T01:16:03,42.805,6.029,0.06,-0.015,0.0,101.0,104.0,100.0,13.3,1505.3,323.7,-0.7,1.8,2470.358,13.32,0.061,104.0
2020-06-05T01:19:03,42.805,6.029,0.03,-0.021,-0.038,103.0,107.0,100.0,13.4,1505.3,326.0,-0.7,1.9,2470.295,13.32,0.036,125.0
2020-06-05T01:22:03,42.805,6.029,0.038,-0.002,-0.001,102.0,104.0,101.0,13.4,1505.3,327.2,-0.7,1.8,2470.273,13.32,0.038,93.0
2020-06-05T01:25:03,42.805,6.029,0.057,-0.006,-0.015,104.0,103.0,101.0,13.3,1505.3,325.6,-0.7,1.8,2470.297,13.32,0.057,96.0
2020-06-05T01:28:03,42.805,6.029,0.042,-0.006,-0.016,102.0,107.0,101.0,13.3,1505.3,325.5,-0.7,1.9,2470.36,13.32,0.042,98.1
2020-06-05T01:31:03,42.805,6.029,0.042,-0.023,-0.019,103.0,105.0,101.0,13.4,1505.3,323.2,-0.7,1.9,2470.279,13.32,0.047,118.7
2020-06-05T01:34:03,42.805,6.029,0.047,-0.018,0.0,104.0,107.0,101.0,13.4,1505.3,325.5,-0.7,1.9,2470.283,13.32,0.05,111.0
2020-06-05T01:37:03,42.805,6.029,0.015,-0.019,-0.045,103.0,106.0,100.0,13.4,1505.3,326.5,-0.7,1.8,2470.292,13.32,0.024,141.7
2020-06-05T01:40:03,42.805,6.029,0.054,-0.025,0.0,103.0,105.0,101.0,13.4,1505.3,326.6,-0.7,1.8,2470.293,13.32,0.059,114.8
2020-06-05T01:43:03,42.805,6.029,0.046,-0.003,-0.037,102.0,106.0,101.0,13.4,1505.3,325.3,-0.7,1.8,2470.294,13.32,0.046,93.7
2020-06-05T01:46:03,42.805,6.029,0.049,-0.012,-0.013,103.0,105.0,101.0,13.3,1505.3,327.7,-0.7,1.8,2470.335,13.32,0.05,103.8
2020-06-05T01:49:03,42.805,6.029,0.031,-0.005,-0.018,104.0,105.0,101.0,13.4,1505.3,327.4,-0.7,1.9,2470.267,13.32,0.031,99.2
2020-06-05T01:52:03,42.805,6.029,0.045,-0.018,-0.028,102.0,106.0,101.0,13.4,1505.3,324.5,-0.7,1.8,2470.299,13.32,0.048,111.8
2020-06-05T01:55:03,42.805,6.029,0.043,-0.006,0.007,102.0,107.0,100.0,13.4,1505.3,328.4,-0.7,1.8,2470.27,13.32,0.043,97.9
2020-06-05T01:58:02,42.805,6.029,0.057,-0.022,-0.02,102.0,104.0,102.0,13.4,1505.3,325.0,-0.7,1.8,2470.304,13.32,0.061,111.1
2020-06-05T02:04:03,42.805,6.029,0.067,-0.018,-0.018,103.0,106.0,100.0,13.4,1505.2,323.2,-0.7,1.8,2470.36,13.3,0.069,105.0
2020-06-05T02:07:03,42.805,6.029,0.043,-0.019,-0.007,104.0,106.0,102.0,13.4,1505.3,324.7,-0.7,1.8,2470.292,13.31,0.047,113.8
2020-06-05T02:10:03,42.805,6.029,0.047,-0.03,0.004,102.0,106.0,102.0,13.3,1505.3,325.7,-0.7,1.8,2470.305,13.31,0.055,122.6
2020-06-05T02:13:03,42.805,6.029,0.063,-0.029,0.01,102.0,105.0,100.0,13.4,1505.3,326.2,-0.7,1.8,2470.318,13.32,0.069,114.7
2020-06-05T02:16:03,42.805,6.029,0.027,-0.041,0.0,104.0,104.0,99.0,13.4,1505.3,327.5,-0.7,1.8,2470.313,13.32,0.049,146.6
2020-06-05T02:19:03,42.805,6.029,0.04,-0.016,0.012,103.0,106.0,100.0,13.4,1505.3,326.5,-0.7,1.8,2470.33,13.32,0.043,111.8
2020-06-05T02:22:03,42.805,6.029,0.055,0.001,0.001,103.0,108.0,102.0,13.4,1505.3,327.8,-0.7,1.8,2470.352,13.32,0.055,89.0
2020-06-05T02:25:03,42.805,6.029,0.04,-0.013,0.0,103.0,106.0,101.0,13.4,1505.3,323.7,-0.7,1.8,2470.281,13.32,0.042,108.0
2020-06-05T02:28:03,42.805,6.029,0.036,-0.004,0.009,103.0,105.0,101.0,13.3,1505.3,325.4,-0.7,1.8,2470.294,13.32,0.036,96.3
2020-06-05T02:31:03,42.805,6.029,0.03,-0.006,-0.023,103.0,104.0,100.0,13.4,1505.3,325.6,-0.7,1.8,2470.294,13.32,0.03,101.3
2020-06-05T02:34:03,42.805,6.029,0.03,0.002,-0.026,104.0,104.0,100.0,13.4,1505.3,325.3,-0.7,1.9,2470.333,13.32,0.03,86.2
2020-06-05T02:37:03,42.805,6.029,0.023,-0.016,-0.034,103.0,106.0,100.0,13.4,1505.3,326.5,-0.7,1.8,2470.329,13.32,0.028,124.8
2020-06-05T02:40:03,42.805,6.029,0.046,-0.014,0.003,103.0,108.0,100.0,13.3,1505.3,326.8,-0.7,1.9,2470.326,13.32,0.048,106.9
2020-06-05T02:43:03,42.805,6.029,0.059,-0.017,0.01,104.0,105.0,101.0,13.4,1505.3,323.9,-0.7,1.8,2470.303,13.32,0.061,106.1
2020-06-05T02:46:03,42.805,6.029,0.035,-0.014,0.0,103.0,106.0,101.0,13.4,1505.3,324.7,-0.7,1.8,2470.316,13.32,0.037,111.8
2020-06-05T02:49:03,42.805,6.029,0.047,-0.016,0.017,103.0,106.0,101.0,13.3,1505.3,325.8,-0.7,1.8,2470.321,13.32,0.049,108.8
2020-06-05T02:52:03,42.805,6.029,0.052,-0.024,-0.021,103.0,104.0,100.0,13.3,1505.3,326.6,-0.7,1.8,2470.353,13.32,0.057,114.8
2020-06-05T02:55:03,42.805,6.029,0.05,-0.027,-0.022,102.0,106.0,101.0,13.4,1505.3,327.6,-0.7,1.8,2470.312,13.32,0.056,118.4
2020-06-05T02:58:03,42.805,6.029,0.041,0.003,-0.035,103.0,105.0,99.0,13.4,1505.3,324.1,-0.7,1.8,2470.365,13.32,0.041,85.8
2020-06-05T03:04:03,42.805,6.029,0.037,-0.003,-0.036,104.0,105.0,100.0,13.4,1505.2,326.5,-0.8,1.8,2470.368,13.3,0.037,94.6
2020-06-05T03:07:03,42.805,6.029,0.053,-0.013,-0.022,102.0,106.0,101.0,13.4,1505.3,328.3,-0.7,1.8,2470.383,13.31,0.054,103.8
2020-06-05T03:10:03,42.805,6.029,0.057,-0.013,0.018,103.0,105.0,100.0,13.4,1505.3,325.7,-0.7,1.8,2470.359,13.31,0.058,102.8
2020-06-05T03:13:03,42.805,6.029,0.03,-0.008,-0.017,104.0,104.0,101.0,13.3,1505.3,328.1,-0.7,1.8,2470.36,13.32,0.031,104.9
2020-06-05T03:16:03,42.805,6.029,0.046,-0.026,-0.023,103.0,105.0,100.0,13.3,1505.3,326.3,-0.7,1.8,2470.345,13.32,0.052,119.5
2020-06-05T03:19:03,42.805,6.029,0.052,-0.014,-0.006,105.0,104.0,100.0,13.4,1505.3,323.6,-0.7,1.8,2470.35,13.32,0.053,105.1
2020-06-05T03:22:03,42.805,6.029,0.04,-0.014,-0.009,104.0,106.0,101.0,13.4,1505.3,324.8,-0.7,1.9,2470.328,13.32,0.042,109.3
2020-06-05T03:25:03,42.805,6.029,0.05,-0.019,-0.001,103.0,105.0,101.0,13.4,1505.3,323.4,-0.7,1.8,2470.331,13.32,0.053,110.8
2020-06-05T03:28:03,42.805,6.029,0.035,-0.016,-0.015,103.0,106.0,101.0,13.3,1505.3,325.0,-0.6,1.8,2470.371,13.32,0.038,114.6
2020-06-05T03:31:03,42.805,6.029,0.062,-0.021,-0.019,103.0,106.0,101.0,13.4,1505.3,328.1,-0.7,1.8,2470.333,13.32,0.065,108.7
2020-06-05T03:34:03,42.805,6.029,0.031,-0.018,-0.047,103.0,104.0,101.0,13.4,1505.3,325.3,-0.7,1.8,2470.351,13.32,0.035,120.1
2020-06-05T03:37:03,42.805,6.029,0.011,0.003,-0.04,103.0,105.0,100.0,13.3,1505.3,323.7,-0.7,1.8,2470.37,13.32,0.011,74.7
2020-06-05T03:40:03,42.805,6.029,0.046,-0.011,-0.012,104.0,106.0,101.0,13.3,1505.3,327.8,-0.7,1.8,2470.406,13.32,0.047,103.4
2020-06-05T03:43:03,42.805,6.029,0.027,-0.014,-0.025,103.0,106.0,101.0,13.4,1505.3,324.4,-0.7,1.8,2470.355,13.32,0.03,117.4
2020-06-05T03:46:03,42.805,6.029,0.031,-0.01,-0.025,103.0,106.0,101.0,13.4,1505.3,324.2,-0.7,1.8,2470.391,13.32,0.032,107.9
2020-06-05T03:49:03,42.805,6.029,0.051,0.004,-0.027,103.0,107.0,101.0,13.4,1505.3,326.0,-0.7,1.8,2470.376,13.32,0.051,85.5
2020-06-05T03:52:03,42.805,6.029,0.058,-0.008,0.024,105.0,105.0,101.0,13.4,1505.3,325.2,-0.7,1.8,2470.351,13.32,0.058,97.8
2020-06-05T03:55:03,42.805,6.029,0.042,-0.013,-0.029,104.0,105.0,101.0,13.4,1505.3,327.2,-0.7,1.8,2470.353,13.32,0.043,107.2
2020-06-05T03:58:03,42.805,6.029,0.051,0.008,-0.029,102.0,105.0,101.0,13.3,1505.3,325.9,-0.7,1.8,2470.399,13.32,0.051,81.1
2020-06-05T04:04:03,42.805,6.029,0.061,-0.025,0.006,104.0,107.0,100.0,13.3,1505.2,328.3,-0.8,1.8,2470.447,13.3,0.065,112.3
2020-06-05T04:07:03,42.805,6.029,0.052,-0.02,-0.014,103.0,106.0,100.0,13.4,1505.3,323.1,-0.7,1.8,2470.39,13.31,0.055,111.0
2020-06-05T04:10:03,42.805,6.029,0.05,-0.014,-0.043,104.0,106.0,100.0,13.3,1505.3,324.2,-0.7,1.8,2470.402,13.31,0.051,105.6
2020-06-05T04:13:03,42.805,6.029,0.037,-0.017,-0.005,102.0,106.0,102.0,13.4,1505.3,325.2,-0.7,1.8,2470.402,13.32,0.04,114.7
2020-06-05T04:16:03,42.805,6.029,0.043,-0.049,-0.03,102.0,106.0,101.0,13.4,1505.3,327.6,-0.7,1.8,2470.385,13.32,0.065,138.7
2020-06-05T04:19:03,42.805,6.029,0.059,-0.001,-0.016,103.0,106.0,101.0,13.3,1505.3,322.8,-0.7,1.9,2470.385,13.32,0.059,91.0
2020-06-05T04:22:03,42.805,6.029,0.056,-0.016,-0.009,103.0,106.0,101.0,13.4,1505.3,323.2,-0.7,1.8,2470.421,13.32,0.058,105.9
2020-06-05T04:25:03,42.805,6.029,0.061,0.0,0.0,103.0,107.0,101.0,13.3,1505.3,325.7,-0.7,1.8,2470.423,13.32,0.06,90.0
2020-06-05T04:28:03,42.805,6.029,0.054,-0.011,-0.056,103.0,104.0,100.0,13.4,1505.3,326.0,-0.7,1.8,2470.358,13.32,0.055,101.5
2020-06-05T04:31:03,42.805,6.029,0.027,-0.006,0.0,103.0,106.0,100.0,13.4,1505.3,325.1,-0.7,1.8,2470.381,13.32,0.027,102.5
2020-06-05T04:34:03,42.805,6.029,0.064,-0.002,0.0,103.0,105.0,101.0,13.3,1505.3,324.4,-0.7,1.8,2470.406,13.32,0.064,91.8
2020-06-05T04:37:03,42.805,6.029,0.036,0.001,-0.017,103.0,105.0,102.0,13.4,1505.3,325.6,-0.7,1.8,2470.415,13.32,0.036,88.4
2020-06-05T04:40:03,42.805,6.029,0.027,-0.009,0.0,104.0,107.0,101.0,13.4,1505.3,326.6,-0.7,1.8,2470.435,13.32,0.028,108.4
2020-06-05T04:43:03,42.805,6.029,0.037,-0.015,0.0,103.0,106.0,101.0,13.4,1505.3,327.0,-0.7,1.8,2470.411,13.32,0.039,112.1
2020-06-05T04:46:03,42.805,6.029,0.066,-0.023,-0.037,103.0,106.0,101.0,13.4,1505.3,326.9,-0.7,1.8,2470.408,13.32,0.069,109.2
2020-06-05T04:49:03,42.805,6.029,0.039,-0.021,-0.027,103.0,107.0,101.0,13.4,1505.3,326.5,-0.7,1.8,2470.454,13.32,0.044,118.3
2020-06-05T04:52:03,42.805,6.029,0.035,0.003,-0.001,104.0,105.0,100.0,13.4,1505.3,326.4,-0.7,1.9,2470.424,13.32,0.035,85.1
2020-06-05T04:55:03,42.805,6.029,0.05,-0.007,-0.023,104.0,107.0,102.0,13.4,1505.3,323.0,-0.7,1.8,2470.407,13.32,0.05,98.0
2020-06-05T04:58:03,42.805,6.029,0.041,0.0,-0.026,102.0,106.0,101.0,13.3,1505.3,325.6,-0.7,1.8,2470.399,13.32,0.041,90.0
2020-06-05T05:04:03,42.805,6.029,0.043,-0.023,-0.003,103.0,106.0,101.0,13.4,1505.2,325.9,-0.8,1.8,2470.481,13.3,0.048,118.1
2020-06-05T05:07:03,42.805,6.029,0.047,-0.002,-0.006,104.0,105.0,102.0,13.3,1505.3,322.9,-0.7,1.8,2470.427,13.31,0.047,92.4
2020-06-05T05:10:03,42.805,6.029,0.049,-0.027,0.0,105.0,107.0,101.0,13.4,1505.3,328.0,-0.7,1.9,2470.444,13.31,0.055,118.9
2020-06-05T05:13:03,42.805,6.029,0.045,-0.016,-0.031,103.0,106.0,101.0,13.4,1505.3,326.0,-0.7,1.8,2470.463,13.32,0.047,109.6
2020-06-05T05:16:03,42.805,6.029,0.031,-0.005,-0.014,103.0,106.0,102.0,13.3,1505.3,324.6,-0.7,1.8,2470.432,13.32,0.031,99.2
2020-06-05T05:19:03,42.805,6.029,0.057,-0.025,-0.011,103.0,106.0,101.0,13.4,1505.3,325.8,-0.7,1.8,2470.48,13.32,0.062,113.7
2020-06-05T05:22:03,42.805,6.029,0.035,-0.017,-0.016,104.0,106.0,102.0,13.4,1505.3,326.1,-0.7,1.8,2470.434,13.32,0.038,115.9
2020-06-05T05:25:03,42.805,6.029,0.059,-0.021,-0.004,105.0,106.0,101.0,13.4,1505.3,327.0,-0.7,1.8,2470.432,13.32,0.062,109.6
2020-06-05T05:28:03,42.805,6.029,0.038,-0.028,-0.023,104.0,105.0,101.0,13.4,1505.3,327.9,-0.7,1.8,2470.401,13.32,0.047,126.4
2020-06-05T05:31:03,42.805,6.029,0.044,-0.008,0.0,103.0,105.0,101.0,13.4,1505.3,326.2,-0.7,1.8,2470.421,13.32,0.044,100.3
2020-06-05T05:34:03,42.805,6.029,0.048,-0.008,-0.015,103.0,105.0,102.0,13.4,1505.3,328.2,-0.7,1.8,2470.442,13.32,0.048,99.5
2020-06-05T05:37:03,42.805,6.029,0.042,-0.003,-0.007,102.0,106.0,102.0,13.4,1505.3,323.8,-0.7,1.8,2470.465,13.32,0.042,94.1
2020-06-05T05:40:03,42.805,6.029,0.035,0.01,-0.014,105.0,106.0,101.0,13.4,1505.3,326.8,-0.7,1.9,2470.423,13.32,0.036,74.1
2020-06-05T05:43:03,42.805,6.029,0.038,-0.012,-0.004,102.0,107.0,102.0,13.3,1505.3,324.3,-0.7,1.8,2470.459,13.32,0.039,107.5
2020-06-05T05:46:03,42.805,6.029,0.04,-0.027,-0.057,104.0,104.0,101.0,13.4,1505.3,327.3,-0.7,1.8,2470.42,13.32,0.048,124.0
2020-06-05T05:49:03,42.805,6.029,0.044,-0.034,-0.016,104.0,107.0,101.0,13.4,1505.3,328.0,-0.7,1.8,2470.438,13.32,0.055,127.7
2020-06-05T05:52:03,42.805,6.029,0.05,-0.012,-0.015,104.0,106.0,101.0,13.4,1505.3,328.3,-0.7,1.8,2470.426,13.32,0.051,103.5
2020-06-05T05:55:03,42.805,6.029,0.032,-0.007,-0.034,103.0,107.0,101.0,13.4,1505.3,324.7,-0.7,1.8,2470.46,13.32,0.032,102.3
2020-06-05T05:58:03,42.805,6.029,0.032,-0.008,-0.015,103.0,109.0,102.0,13.4,1505.3,325.0,-0.7,1.8,2470.469,13.32,0.032,104.0
2020-06-05T06:04:03,42.805,6.029,0.035,-0.009,-0.044,103.0,107.0,101.0,13.3,1505.2,326.7,-0.7,1.8,2470.464,13.3,0.036,104.4
2020-06-05T06:07:03,42.805,6.029,0.046,-0.001,0.021,103.0,106.0,101.0,13.3,1505.3,325.0,-0.7,1.8,2470.478,13.31,0.046,91.2
2020-06-05T06:10:03,42.805,6.029,0.047,-0.016,-0.006,103.0,104.0,102.0,13.3,1505.3,326.4,-0.7,1.8,2470.476,13.31,0.049,108.8
2020-06-05T06:13:03,42.805,6.029,0.046,0.006,-0.003,103.0,106.0,100.0,13.3,1505.3,322.5,-0.7,1.8,2470.485,13.32,0.046,82.6
2020-06-05T06:16:03,42.805,6.029,0.066,-0.016,-0.026,103.0,105.0,101.0,13.4,1505.3,327.1,-0.7,1.8,2470.462,13.32,0.067,103.6
2020-06-05T06:19:03,42.805,6.029,0.067,-0.009,0.007,102.0,106.0,101.0,13.4,1505.3,325.6,-0.7,1.8,2470.486,13.32,0.067,97.7
2020-06-05T06:22:03,42.805,6.029,0.036,-0.02,-0.015,103.0,108.0,102.0,13.3,1505.3,326.5,-0.7,1.8,2470.433,13.32,0.041,119.1
2020-06-05T06:25:03,42.805,6.029,0.039,-0.001,-0.041,103.0,106.0,100.0,13.4,1505.3,325.9,-0.7,1.8,2470.459,13.32,0.039,91.5
2020-06-05T06:28:03,42.805,6.029,0.065,0.009,0.029,104.0,107.0,102.0,13.4,1505.3,325.9,-0.7,1.8,2470.44,13.32,0.065,82.1
2020-06-05T06:31:03,42.805,6.029,0.065,-0.001,0.009,103.0,108.0,101.0,13.4,1505.3,325.3,-0.7,1.9,2470.451,13.32,0.065,90.9
2020-06-05T06:34:03,42.805,6.029,0.054,-0.015,-0.024,103.0,107.0,102.0,13.3,1505.3,323.8,-0.7,1.8,2470.443,13.32,0.056,105.5
2020-06-05T06:37:03,42.805,6.029,0.047,-0.008,0.0,103.0,106.0,101.0,13.3,1505.3,324.1,-0.7,1.8,2470.431,13.32,0.047,99.7
2020-06-05T06:40:03,42.805,6.029,0.06,-0.017,0.01,104.0,106.0,101.0,13.4,1505.3,327.2,-0.7,1.8,2470.477,13.32,0.062,105.8
2020-06-05T06:43:03,42.805,6.029,0.041,-0.015,0.001,105.0,106.0,100.0,13.3,1505.3,323.3,-0.7,1.8,2470.412,13.32,0.043,110.1
2020-06-05T06:46:03,42.805,6.029,0.054,-0.001,0.011,103.0,108.0,101.0,13.4,1505.3,327.6,-0.7,1.8,2470.452,13.32,0.054,91.1
2020-06-05T06:49:03,42.805,6.029,0.067,-0.019,-0.023,105.0,105.0,100.0,13.3,1505.3,325.3,-0.7,1.8,2470.445,13.32,0.069,105.8
2020-06-05T06:52:03,42.805,6.029,0.033,0.0,-0.043,104.0,106.0,101.0,13.3,1505.3,326.3,-0.7,1.8,2470.456,13.32,0.033,90.0
2020-06-05T06:55:03,42.805,6.029,0.062,-0.014,-0.004,104.0,106.0,102.0,13.4,1505.3,323.0,-0.7,1.8,2470.439,13.32,0.063,102.7
2020-06-05T06:58:03,42.805,6.029,0.043,-0.001,0.022,104.0,107.0,101.0,13.3,1505.3,325.4,-0.7,1.8,2470.431,13.32,0.043,91.3
2020-06-05T07:04:03,42.805,6.029,0.031,-0.01,-0.005,102.0,107.0,101.0,13.4,1505.2,325.2,-0.7,1.8,2470.503,13.3,0.032,107.9
2020-06-05T07:07:03,42.805,6.029,0.04,-0.01,-0.003,101.0,108.0,102.0,13.4,1505.3,327.9,-0.7,1.8,2470.459,13.31,0.041,104.0
2020-06-05T07:10:03,42.805,6.029,0.089,-0.008,0.019,103.0,107.0,100.0,13.3,1505.3,326.9,-0.7,1.8,2470.467,13.31,0.089,95.1
2020-06-05T07:13:03,42.805,6.029,0.079,-0.02,0.001,102.0,106.0,101.0,13.4,1505.3,327.8,-0.7,1.9,2470.459,13.32,0.081,104.2
2020-06-05T07:16:03,42.805,6.029,0.056,-0.023,-0.023,104.0,106.0,101.0,13.4,1505.3,324.9,-0.7,1.8,2470.43,13.32,0.06,112.3
2020-06-05T07:19:03,42.805,6.029,0.07,-0.025,-0.008,102.0,107.0,101.0,13.4,1505.3,324.2,-0.7,1.8,2470.436,13.32,0.074,109.6
2020-06-05T07:22:03,42.805,6.029,0.016,-0.008,-0.045,105.0,104.0,101.0,13.3,1505.3,328.5,-0.7,1.9,2470.435,13.32,0.017,116.6
2020-06-05T07:25:03,42.805,6.029,0.057,-0.008,-0.025,104.0,108.0,101.0,13.3,1505.3,327.4,-0.7,1.8,2470.458,13.32,0.057,98.0
2020-06-05T07:28:03,42.805,6.029,0.018,-0.029,-0.021,103.0,108.0,101.0,13.4,1505.3,327.7,-0.7,1.8,2470.441,13.32,0.034,148.2
2020-06-05T07:31:03,42.805,6.029,0.029,-0.005,-0.014,102.0,107.0,102.0,13.4,1505.3,324.7,-0.7,1.8,2470.461,13.32,0.029,99.8
2020-06-05T07:34:03,42.805,6.029,0.05,0.008,0.002,103.0,108.0,101.0,13.4,1505.3,326.7,-0.7,1.9,2470.435,13.32,0.05,80.9
2020-06-05T07:37:03,42.805,6.029,0.046,-0.006,-0.005,103.0,109.0,102.0,13.3,1505.3,327.1,-0.7,1.8,2470.439,13.32,0.046,97.4
2020-06-05T07:40:03,42.805,6.029,0.039,-0.014,-0.025,103.0,110.0,101.0,13.4,1505.3,324.8,-0.7,1.8,2470.414,13.32,0.041,109.7
2020-06-05T07:43:03,42.805,6.029,0.036,-0.013,-0.025,103.0,107.0,102.0,13.4,1505.3,326.4,-0.7,1.8,2470.434,13.32,0.038,109.9
2020-06-05T07:46:03,42.805,6.029,0.038,-0.019,-0.041,104.0,106.0,101.0,13.4,1505.3,325.0,-0.7,1.8,2470.433,13.32,0.042,116.6
2020-06-05T07:49:03,42.805,6.029,0.067,-0.012,0.003,103.0,104.0,102.0,13.3,1505.3,327.1,-0.7,1.8,2470.46,13.32,0.068,100.2
2020-06-05T07:52:03,42.805,6.029,0.043,-0.01,-0.029,104.0,105.0,101.0,13.4,1505.3,325.7,-0.7,1.8,2470.441,13.32,0.044,103.1
2020-06-05T07:55:03,42.805,6.029,0.028,-0.014,-0.006,102.0,105.0,102.0,13.4,1505.3,323.2,-0.7,1.8,2470.399,13.32,0.031,116.6
2020-06-05T07:58:03,42.805,6.029,0.048,-0.023,-0.026,103.0,107.0,102.0,13.4,1505.3,327.9,-0.7,1.8,2470.415,13.32,0.053,115.6
2020-06-05T08:04:03,42.805,6.029,0.045,-0.001,0.02,104.0,107.0,101.0,13.4,1505.2,326.4,-0.7,1.8,2470.463,13.3,0.045,91.3
2020-06-05T08:07:03,42.805,6.029,0.043,-0.001,-0.017,104.0,107.0,101.0,13.4,1505.3,322.9,-0.7,1.8,2470.433,13.31,0.043,91.3
2020-06-05T08:10:03,42.805,6.029,0.048,-0.004,-0.015,104.0,108.0,101.0,13.3,1505.3,324.2,-0.7,1.8,2470.434,13.31,0.048,94.8
2020-06-05T08:13:03,42.805,6.029,0.062,-0.029,0.017,104.0,105.0,102.0,13.3,1505.3,323.4,-0.7,1.8,2470.449,13.32,0.068,115.1
2020-06-05T08:16:03,42.805,6.029,0.057,-0.02,0.006,104.0,106.0,101.0,13.4,1505.3,323.2,-0.7,1.8,2470.4,13.32,0.06,109.3
2020-06-05T08:19:03,42.805,6.029,0.051,-0.004,-0.035,103.0,107.0,101.0,13.4,1505.3,324.2,-0.7,1.8,2470.428,13.32,0.051,94.5
2020-06-05T08:22:03,42.805,6.029,0.022,-0.012,-0.005,105.0,106.0,102.0,13.4,1505.3,326.8,-0.7,1.8,2470.354,13.32,0.025,118.6
2020-06-05T08:25:03,42.805,6.029,0.037,-0.018,-0.009,104.0,106.0,102.0,13.3,1505.3,325.8,-0.7,1.8,2470.402,13.32,0.041,115.9
2020-06-05T08:28:03,42.805,6.029,0.04,-0.005,-0.007,103.0,105.0,102.0,13.4,1505.3,324.1,-0.7,1.8,2470.416,13.32,0.04,97.1
2020-06-05T08:31:03,42.805,6.029,0.043,-0.008,-0.032,103.0,105.0,102.0,13.4,1505.3,322.8,-0.7,1.8,2470.413,13.32,0.043,100.5
2020-06-05T08:34:03,42.805,6.029,0.057,-0.023,0.013,103.0,105.0,103.0,13.4,1505.3,325.2,-0.7,1.8,2470.423,13.32,0.061,112.0
2020-06-05T08:37:03,42.805,6.029,0.052,-0.028,-0.014,103.0,105.0,102.0,13.4,1505.3,325.6,-0.7,1.8,2470.416,13.32,0.059,118.3
2020-06-05T08:40:03,42.805,6.029,0.027,-0.015,-0.043,103.0,106.0,102.0,13.4,1505.3,328.2,-0.7,1.8,2470.387,13.32,0.03,119.1
2020-06-05T08:43:03,42.805,6.029,0.045,-0.015,0.007,104.0,105.0,101.0,13.4,1505.3,324.1,-0.7,1.8,2470.35,13.32,0.047,108.4
2020-06-05T08:46:03,42.805,6.029,0.053,-0.01,0.001,104.0,105.0,101.0,13.3,1505.3,326.1,-0.7,1.8,2470.372,13.32,0.053,100.7
2020-06-05T08:49:03,42.805,6.029,0.06,-0.019,-0.01,105.0,106.0,101.0,13.4,1505.3,324.4,-0.7,1.8,2470.39,13.32,0.062,107.6
2020-06-05T08:52:03,42.805,6.029,0.006,-0.007,-0.025,105.0,104.0,102.0,13.3,1505.3,326.2,-0.7,1.8,2470.403,13.32,0.009,139.4
2020-06-05T08:55:03,42.805,6.029,0.045,0.0,0.003,106.0,105.0,100.0,13.3,1505.3,327.0,-0.7,1.8,2470.346,13.32,0.045,90.0
2020-06-05T08:58:03,42.805,6.029,0.04,-0.017,-0.046,103.0,106.0,100.0,13.3,1505.3,324.2,-0.7,1.8,2470.405,13.32,0.043,113.0
2020-06-05T09:04:03,42.805,6.029,0.036,-0.017,0.0,103.0,107.0,101.0,13.3,1505.2,326.7,-0.8,1.8,2470.423,13.3,0.039,115.3
2020-06-05T09:07:03,42.805,6.029,0.039,-0.012,-0.011,104.0,107.0,102.0,13.4,1505.3,327.6,-0.7,1.8,2470.392,13.31,0.04,107.1
2020-06-05T09:10:03,42.805,6.029,0.042,-0.023,-0.042,104.0,106.0,102.0,13.3,1505.3,322.9,-0.7,1.8,2470.37,13.31,0.047,118.7
2020-06-05T09:13:03,42.805,6.029,0.052,-0.003,-0.014,104.0,108.0,100.0,13.4,1505.3,328.4,-0.7,1.8,2470.404,13.32,0.052,93.3
2020-06-05T09:16:03,42.805,6.029,0.057,-0.001,-0.026,103.0,106.0,101.0,13.4,1505.3,326.9,-0.7,1.8,2470.373,13.32,0.057,91.0
2020-06-05T09:19:03,42.805,6.029,0.043,-0.019,-0.018,103.0,107.0,101.0,13.4,1505.3,324.5,-0.7,1.8,2470.403,13.32,0.047,113.8
2020-06-05T09:22:03,42.805,6.029,0.043,0.002,-0.002,104.0,107.0,102.0,13.4,1505.3,324.9,-0.7,1.9,2470.397,13.32,0.043,87.3
2020-06-05T09:25:03,42.805,6.029,0.041,0.002,0.01,104.0,105.0,102.0,13.4,1505.3,324.5,-0.7,1.9,2470.338,13.32,0.041,87.2
2020-06-05T09:28:03,42.805,6.029,0.025,-0.007,-0.028,105.0,103.0,102.0,13.4,1505.3,323.1,-0.7,1.8,2470.358,13.32,0.025,105.6
2020-06-05T09:31:03,42.805,6.029,0.043,-0.017,-0.011,103.0,106.0,101.0,13.4,1505.3,327.8,-0.7,1.8,2470.387,13.32,0.046,111.6
2020-06-05T09:34:03,42.805,6.029,0.048,0.001,-0.017,104.0,106.0,101.0,13.4,1505.3,328.3,-0.7,1.8,2470.361,13.32,0.048,88.8
2020-06-05T09:37:03,42.805,6.029,0.048,0.005,0.006,104.0,108.0,102.0,13.4,1505.3,325.9,-0.7,1.8,2470.346,13.32,0.048,84.1
2020-06-05T09:40:03,42.805,6.029,0.034,-0.007,-0.03,105.0,105.0,102.0,13.4,1505.3,326.8,-0.7,1.9,2470.361,13.32,0.034,101.6
2020-06-05T09:43:03,42.805,6.029,0.04,-0.019,-0.037,104.0,107.0,101.0,13.4,1505.3,323.5,-0.7,1.8,2470.36,13.32,0.044,115.4
2020-06-05T09:46:03,42.805,6.029,0.051,-0.012,-0.018,104.0,107.0,102.0,13.3,1505.3,327.8,-0.7,1.8,2470.335,13.32,0.052,103.2
2020-06-05T09:49:03,42.805,6.029,0.041,-0.017,0.02,104.0,106.0,101.0,13.4,1505.3,325.8,-0.7,1.8,2470.298,13.32,0.044,112.5
2020-06-05T09:52:03,42.805,6.029,0.068,-0.024,0.002,104.0,105.0,101.0,13.3,1505.3,325.8,-0.7,1.8,2470.337,13.32,0.072,109.4
2020-06-05T09:55:03,42.805,6.029,0.052,-0.018,-0.029,104.0,104.0,102.0,13.3,1505.3,325.3,-0.7,1.8,2470.305,13.32,0.055,109.1
2020-06-05T09:58:03,42.805,6.029,0.06,-0.027,-0.007,104.0,105.0,101.0,13.4,1505.3,324.8,-0.7,1.8,2470.305,13.32,0.065,114.2